Regional Weather Roundup
Issued by NWS Charleston, WV

Home | Current Version | Previous Version | Text Only | Print | Product List | Glossary Off
Versions: 1 2 3 4 5 6 7 8 9 10 11 12 13 14 15 16 17 18 19 20 21 22 23 24 25 26 27

000
ASUS41 KRLX 231510
RWRRLX
West Virginia Regional Weather Roundup
National Weather Service Charleston WV
1100 AM EDT MON APR 23 2018

Note: "fair" indicates few or no clouds below 12,000 feet with no
significant weather and/or obstructions to visibility.

WVZ003-231600-
Northern Panhandle of West Virginia

CITY           SKY/WX    TMP DP  RH WIND       PRES   REMARKS
WHEELING       FAIR      64  41  42 SE20G25   30.26F
$$

WVZ009-231600-
Northwest West Virginia

CITY           SKY/WX    TMP DP  RH WIND       PRES   REMARKS
PARKERSBURG    FAIR      64  39  39 SE13      30.24F
$$

WVZ006-231600-
Western West Virginia

CITY           SKY/WX    TMP DP  RH WIND       PRES   REMARKS
HUNTINGTON     LGT RAIN  61  46  57 E5        30.16R
$$

WVZ015-231600-
West Central West Virginia

CITY           SKY/WX    TMP DP  RH WIND       PRES   REMARKS
CHARLESTON     CLOUDY    64  38  38 SE15G22   30.20R
$$

WVZ022-031-231600-
North Central West Virginia

CITY           SKY/WX    TMP DP  RH WIND       PRES   REMARKS
CLARKSBURG     FAIR      67  37  33 SE12G23   30.25S
MORGANTOWN     FAIR      66  38  35 SE18G24   30.28F
$$

WVZ025-035-042-045-231600-
Southern West Virginia

CITY           SKY/WX    TMP DP  RH WIND       PRES   REMARKS
BECKLEY        CLOUDY    53  41  63 SE16G32   30.25R
LOGAN          PTSUNNY   59  41  51 SE12G18   30.18R
BLUEFIELD      CLOUDY    50  39  66 E13G32    30.24S
LEWISBURG      FAIR      56  41  58 SE12      30.33R
$$

WVZ047-231600-
Northern Mountains of West Virginia

CITY           SKY/WX    TMP DP  RH WIND       PRES   REMARKS
ELKINS         FAIR      62  29  28 S8        30.26F
$$

WVZ052-231600-
Eastern Panhandle of West Virginia

CITY           SKY/WX    TMP DP  RH WIND       PRES   REMARKS
MARTINSBURG    FAIR      60  38  43 E7        30.40S
PETERSBURG     FAIR      59  38  46 E5        30.35F
$$




USA.gov is the U.S. government's official web portal to all federal, state and local government web resources and services.